This demonstration page uses our WeatherBlox Daily Observations layout. Learn more.

Left ArrowRight Arrow

Hourly Observations for October 20, 2020

Temp ( °F °C ) Dew Point ( °F °C ) Humidity (%) Winds ( mph kmh ) Pressure ( in mb ) Visibility ( mi km ) Precip ( " mm )
12:15 am 00:15 Cloudy 46 8 46 8 100 100 N 6 9 30.16 1021 3 4 N/A
12:35 am 00:35 Cloudy 46 8 46 8 100 100 NNE 8 13 30.15 1021 3 4 N/A
12:55 am 00:55 Cloudy 46 8 46 8 100 100 N 6 9 30.15 1021 5 8 N/A
1:15 am 01:15 Cloudy 46 8 46 8 100 100 N 10 17 30.16 1021 3 4 N/A
1:35 am 01:35 Cloudy 45 7 45 7 100 100 N 14 22 30.17 1022 3 5 N/A
1:55 am 01:55 Cloudy 45 7 45 7 100 100 NNE 9 15 30.16 1021 5 8 N/A
2:15 am 02:15 Cloudy 45 7 45 7 100 100 NNE 8 13 30.15 1021 7 11 N/A
2:35 am 02:35 Cloudy 45 7 45 7 100 100 NNE 8 13 30.15 1021 10 16 N/A
2:55 am 02:55 Cloudy 45 7 45 7 100 100 NNE 12 19 30.15 1021 7 11 N/A
3:15 am 03:15 Cloudy 43 6 43 6 100 100 N 8 13 30.15 1021 10 16 N/A
3:35 am 03:35 Cloudy 43 6 43 6 100 100 N 9 15 30.16 1021 10 16 N/A
3:55 am 03:55 Cloudy 43 6 43 6 100 100 N 10 17 30.16 1021 3 5 N/A
4:15 am 04:15 Cloudy 43 6 43 6 100 100 N 10 17 30.16 1021 3 5 N/A
4:35 am 04:35 Cloudy 43 6 43 6 100 100 NNE 12 19 30.16 1021 3 5 N/A
4:55 am 04:55 Cloudy 43 6 43 6 100 100 NE 9 15 30.16 1021 5 8 N/A
5:15 am 05:15 Cloudy 43 6 43 6 100 100 NE 5 7 30.16 1021 4 6 N/A
5:35 am 05:35 Cloudy 43 6 43 6 100 100 NNE 7 11 30.16 1021 5 8 N/A
5:55 am 05:55 Cloudy 43 6 43 6 100 100 NNE 10 17 30.16 1021 7 11 N/A
6:15 am 06:15 Cloudy 43 6 43 6 100 100 N 7 11 30.18 1022 7 11 N/A
6:35 am 06:35 Cloudy 43 6 43 6 100 100 N 6 9 30.18 1022 7 11 N/A
6:55 am 06:55 Cloudy 43 6 43 6 100 100 NNE 6 9 30.20 1023 10 16 N/A
7:15 am 07:15 Cloudy 43 6 43 6 100 100 NNE 6 9 30.21 1023 10 16 N/A
7:35 am 07:35 Cloudy 43 6 43 6 100 100 NNE 3 6 30.21 1023 10 16 N/A
7:55 am 07:55 Cloudy 43 6 43 6 100 100 N 7 11 30.21 1023 7 11 N/A
8:15 am 08:15 Cloudy 43 6 43 6 100 100 N 7 11 30.23 1024 7 11 N/A
8:35 am 08:35 Cloudy 43 6 43 6 100 100 N 9 15 30.22 1024 5 8 N/A
8:55 am 08:55 Cloudy 43 6 43 6 100 100 NNE 9 15 30.23 1024 5 8 N/A
9:15 am 09:15 Cloudy 43 6 43 6 100 100 NNE 9 15 30.24 1024 5 8 N/A
9:35 am 09:35 Cloudy 45 7 45 7 100 100 NNE 8 13 30.25 1024 5 8 N/A
9:55 am 09:55 Cloudy 45 7 45 7 100 100 NNE 8 13 30.25 1024 5 8 N/A
10:15 am 10:15 Cloudy 45 7 45 7 100 100 NNE 6 9 30.26 1025 5 8 N/A
10:35 am 10:35 Cloudy 45 7 45 7 100 100 NE 7 11 30.25 1024 5 8 N/A
10:55 am 10:55 Cloudy 45 7 45 7 100 100 NNE 9 15 30.26 1025 5 8 N/A
11:15 am 11:15 Cloudy 46 8 46 8 100 100 NNE 9 15 30.26 1025 5 8 N/A
11:35 am 11:35 Cloudy 46 8 46 8 100 100 NNE 10 17 30.26 1025 5 8 N/A
11:55 am 11:55 Cloudy 46 8 46 8 100 100 NE 9 15 30.25 1024 7 11 N/A
12:15 pm 12:15 Cloudy 46 8 46 8 100 100 NE 9 15 30.25 1024 7 11 N/A
12:35 pm 12:35 Cloudy 46 8 46 8 100 100 ENE 9 15 30.25 1024 7 11 N/A
12:55 pm 12:55 Cloudy 48 9 48 9 100 100 NE 8 13 30.24 1024 5 8 N/A
1:15 pm 13:15 Cloudy 48 9 48 9 100 100 ENE 9 15 30.23 1024 5 8 N/A
1:35 pm 13:35 Cloudy 48 9 48 9 100 100 NE 8 13 30.22 1023 5 8 N/A
1:55 pm 13:55 Cloudy 48 9 48 9 100 100 ENE 9 15 30.22 1023 5 8 N/A
2:15 pm 14:15 Cloudy 50 10 50 10 100 100 ENE 9 15 30.20 1023 7 11 N/A
2:35 pm 14:35 Cloudy 50 10 50 10 100 100 ENE 8 13 30.20 1023 7 11 N/A
2:55 pm 14:55 Cloudy 50 10 50 10 100 100 E 7 11 30.20 1023 7 11 N/A
3:15 pm 15:15 Cloudy 50 10 50 10 100 100 ENE 7 11 30.18 1022 7 11 N/A
3:35 pm 15:35 Cloudy 50 10 50 10 100 100 ENE 6 9 30.18 1022 7 11 N/A
3:55 pm 15:55 Cloudy 50 10 50 10 100 100 ENE 6 9 30.17 1022 7 11 N/A
4:15 pm 16:15 Cloudy 52 11 52 11 100 100 ENE 6 9 30.17 1022 7 11 N/A
4:35 pm 16:35 Cloudy 52 11 52 11 100 100 ENE 6 9 30.15 1021 7 11 N/A
4:55 pm 16:55 Cloudy 52 11 52 11 100 100 E 8 13 30.14 1021 7 11 N/A
5:15 pm 17:15 Cloudy 52 11 52 11 100 100 E 7 11 30.15 1021 7 11 N/A
5:35 pm 17:35 Cloudy 52 11 52 11 100 100 ESE 7 11 30.14 1021 7 11 N/A
5:55 pm 17:55 Cloudy 52 11 52 11 100 100 E 5 7 30.14 1021 5 8 N/A
6:15 pm 18:15 Cloudy 52 11 52 11 100 100 ESE 9 15 30.13 1020 5 8 N/A
6:35 pm 18:35 Cloudy 52 11 52 11 100 100 E 6 9 30.13 1020 5 8 N/A
6:55 pm 18:55 Cloudy 52 11 52 11 100 100 ESE 9 15 30.12 1020 7 11 N/A
7:15 pm 19:15 Cloudy 52 11 52 11 100 100 ESE 8 13 30.13 1020 7 11 N/A
7:35 pm 19:35 Cloudy 52 11 52 11 100 100 ESE 7 11 30.13 1020 5 8 N/A
7:55 pm 19:55 Cloudy 52 11 52 11 100 100 SE 5 7 30.15 1021 3 4 N/A
8:15 pm 20:15 Cloudy 52 11 52 11 100 100 ESE 5 7 30.14 1021 3 5 N/A
8:35 pm 20:35 Cloudy 52 11 52 11 100 100 ESE 10 17 30.10 1019 3 5 N/A
8:55 pm 20:55 Cloudy 52 11 52 11 100 100 E 5 7 30.11 1020 4 6 N/A
9:15 pm 21:15 Cloudy 52 11 52 11 100 100 E 8 13 30.09 1019 5 8 N/A
9:35 pm 21:35 Cloudy 52 11 52 11 100 100 E 6 9 30.09 1019 5 8 N/A
9:55 pm 21:55 Cloudy 52 11 52 11 100 100 E 9 15 30.08 1019 1 1 N/A
10:15 pm 22:15 Cloudy 52 11 52 11 100 100 NNW 15 24 30.10 1019 3 5 N/A
10:35 pm 22:35 Cloudy 54 12 54 12 100 100 ENE 8 13 30.08 1019 5 8 N/A
10:55 pm 22:55 Cloudy 54 12 54 12 100 100 ESE 13 20 30.05 1018 7 11 N/A
11:15 pm 23:15 Cloudy 54 12 54 12 100 100 SSE 9 15 30.05 1018 4 6 N/A
11:35 pm 23:35 Cloudy 54 12 54 12 100 100 SSE 9 15 30.05 1018 3 5 N/A
11:55 pm 23:55 Cloudy 55 13 55 13 100 100 SSE 12 19 30.04 1017 3 5 N/A

Powered by AerisWeather